Flag for United Kingdom Weather past 2 weeks in Rotherham, England, United Kingdom

Now
46 °F

Cool.


Feels Like: 39 °F
Forecast: 37 / 48 °F
Wind: 17 mph from West

Location: Nottingham Weather Centre

Current Time: Mar 1, 2015 at 3:38:11 AM

Latest Report: Mar 1, 2015 at 2:00 AM


Visibility: 25 mi

Pressure: 29.32 "Hg

Humidity: 73%

Dew point: 38 °F

Location of RotherhamLocation

Historic Weather in Rotherham — Graph

°F

Rotherham temperature yesterday

Maximum temperature yesterday: 51 °F (at 2:00 PM)
Minimum temperature yesterday: 40 °F (at 1:00 AM)
Average temperature yesterday: 46 °F

Past Weeks' High & Low Weather Summary

 TemperatureHumidityPressure
High51 °F (Feb 28, 2:00 PM)100% (Feb 15, 9:00 AM)30.69 "Hg (Feb 15, 9:00 AM)
Low31 °F (Feb 22, 7:00 AM)51% (Feb 17, 3:00 PM)29.09 "Hg (Feb 23, 3:00 PM)
Average41 °F85%29.82 "Hg
* Reported Feb 14 2:00 AM — Mar 1 2:00 AM, Rotherham, Weather by CustomWeather, © 2015

Note: Actual official high and low records may vary slightly from our data, if they occured in-between our weather recording intervals... More about our weather records

Advertising

Rotherham weather history for previous 24 hours

 ConditionsComfort  
Time TempWeatherWind HumidityBarometerVisibility
2:00 AM
Sun, Mar 1
46 °FCool.17 mph73%29.32 "Hg25 mi
1:00 AM47 °FLots of rain. Overcast.14 mph79%29.29 "Hg17 mi
12:00 AM49 °FCool.17 mph77%29.23 "Hg19 mi
11:00 PM
Sat, Feb 28
50 °FCool.16 mph89%29.23 "Hg18 mi
10:00 PM49 °FCool.18 mph90%29.23 "Hg25 mi
9:00 PM48 °FCool.16 mph88%29.29 "Hg18 mi
8:00 PM46 °FCool.12 mph93%29.32 "Hg14 mi
7:00 PM47 °FRain showers. Overcast.13 mph87%29.38 "Hg7 mi
6:00 PM47 °FLots of rain. Overcast.12 mph80%29.41 "Hg8 mi
5:00 PM48 °FCool.14 mph76%29.47 "Hg14 mi
4:00 PM49 °FCool.10 mph76%29.50 "Hg16 mi
3:00 PM50 °FCool.14 mph73%29.55 "Hg22 mi
2:00 PM51 °FCool.10 mph79%29.58 "Hg22 mi
1:00 PM50 °FCool.13 mph84%29.63 "Hg25 mi
12:00 PM49 °FCool.12 mph87%29.67 "Hg22 mi
11:00 AM47 °FCool.9 mph95%29.69 "Hg28 mi
10:00 AM45 °FQuite cool.10 mph97%29.71 "Hg18 mi
9:00 AM44 °FFog.12 mph97%29.75 "Hg3 mi
8:00 AM43 °FFog.10 mph97%29.76 "Hg4 mi
7:00 AM43 °FQuite cool.12 mph95%29.76 "Hg12 mi
6:00 AM43 °FQuite cool.10 mph93%29.78 "Hg6 mi
5:00 AM42 °FQuite cool.12 mph89%29.80 "Hg19 mi
4:00 AM42 °FQuite cool.10 mph87%29.83 "Hg22 mi
Weather by CustomWeather, © 2015

See weather overviewHow to use our weather pages